Simultaneous Nadir Overpasses (SNOs) Predictions

Prediction of SNOs between GOES-14 and AQUA Satellite Orbit:

Table of predicted SNOs for the next 14.0 days since TLE Epoch: 9/30/2023
Index Date Time (GOES-14) GOES-14 Lat,Lon AQUA Lat,Lon Distance(km) Time Diff (sec)
1 10/01/2023 09:09:31 0.26,-108.61 0.34,-109.03 47.63 80
2 10/03/2023 08:57:33 0.26,-108.62 -0.44,-105.46 359.06 80
3 10/03/2023 21:15:39 -0.24,-108.53 -0.64,-110.49 222.30 80
4 10/05/2023 21:03:39 -0.24,-108.53 0.08,-106.91 184.58 80
5 10/06/2023 09:21:37 0.21,-108.62 0.93,-111.91 374.89 80
6 10/08/2023 09:09:37 0.21,-108.62 0.15,-108.33 32.47 80
7 10/10/2023 08:54:56 0.22,-108.62 -0.63,-104.75 440.53 80
8 10/10/2023 21:13:01 -0.19,-108.54 -0.46,-109.77 140.55 80
9 10/12/2023 21:00:59 -0.19,-108.54 0.32,-106.19 268.28 80
10 10/13/2023 09:18:56 0.17,-108.63 0.71,-111.19 290.61 80
